Regional Weather Roundup
Issued by NWS

Home | Current Version | Previous Version | Graphics & Text | Print | Product List | Glossary Off
Versions: 1 2 3 4 5 6 7 8 9 10 11 12 13 14 15 16 17 18 19 20 21 22 23 24 25 26 27 28 29 30 31 32 33 34 35 36 37 38 39 40 41 42 43 44 45 46 47 48 49 50

000
ASUS43 KDMX 280103
RWRIA

WEATHER ROUNDUP FOR IOWA
NATIONAL WEATHER SERVICE DES MOINES IA
800 PM CDT FRI MAY 27 2016

NOTE: "FAIR" INDICATES FEW OR NO CLOUDS BELOW 12,000 FEET WITH NO
SIGNIFICANT WEATHER AND/OR OBSTRUCTIONS TO VISIBILITY.

* - THESE STATIONS ARE NOT NWS STATIONS...THUS NOT UNDER NWS
QUALITY CONTROL.  THEY ALSO DO NOT REPORT WEATHER SUCH
AS PRECIPITATION OR FOG.

IAZ001>003-012>014-020>022-031>034-043>046-280200-
   NORTHWEST IOWA

CITY           SKY/WX    TMP DP  RH WIND       PRES   REMARKS
CARROLL *      PTCLDY    72  63  73 SE7       29.71R
CHEROKEE *     CLOUDY    73  60  64 CALM      29.70S
DENISON *      PTCLDY    73  61  64 E6        29.67F
LE MARS *      CLOUDY    75  57  53 NE6       29.70S
ORANGE CITY *  CLEAR     73  59  60 S3        29.72R
SHELDON *      MOCLDY    73  57  56 SE3       29.70S
SIOUX CITY     CLOUDY    77  58  51 E8        29.68S
SPENCER        MOCLDY    72  57  59 NE7       29.71S
STORM LAKE *   CLEAR     73  57  56 NE3       29.71F
$$

IAZ055>058-069>071-079>083-090>094-280200-
   SOUTHWEST IOWA

CITY           SKY/WX    TMP DP  RH WIND       PRES   REMARKS
ATLANTIC *     CLOUDY    72  64  78 SE6       29.70S
AUDUBON *      MOCLDY    70  64  83 E5        29.72R
CLARINDA *       N/A     72  66  83 MISG      29.72R
COUNCIL BLFS * PTCLDY    72  63  73 SE9       29.70F
CRESTON *      CLOUDY    70  64  83 S7        29.75R
HARLAN  *      MOCLDY    72  63  73 SE8       29.74R
LAMONI         LGT RAIN  68  66  93 CALM      29.74R
RED OAK *      CLOUDY    70  64  83 CALM      29.71S
SHENANDOAH *   CLOUDY    72  68  88 E5        29.70F
$$

IAZ047>049-059>061-072>074-084-280200-
   CENTRAL IOWA

CITY           SKY/WX    TMP DP  RH WIND       PRES   REMARKS
AMES           PTCLDY    72  63  73 E5        29.71F
ANKENY *       MOCLDY    72  64  78 CALM      29.70F
BOONE *        PTCLDY    72  64  78 E7        29.70F
CHARITON *     CLOUDY    72  64  78 N6        29.72S
DES MOINES     MOCLDY    74  61  63 NE7       29.70F
GRINNELL*      PTCLDY    73  64  73 NW6       29.72F
KNOXVILLE *    MOCLDY    73  63  68 N3        29.70F
MARSHALLTOWN   CLEAR     73  63  70 N7        29.71F
NEWTON *       PTCLDY    72  64  78 N5        29.71F
PERRY *          N/A     73  64  73 E7        29.71S
$$

IAZ004>006-015-016-023>025-035-036-280200-
   NORTH CENTRAL IOWA

CITY           SKY/WX    TMP DP  RH WIND       PRES   REMARKS
ALGONA *       PTCLDY    73  61  64 SE10      29.72F
CLARION *      CLEAR     72  63  73 E6        29.73S
ESTHERVILLE    CLEAR     70  57  63 NE6       29.71S
FORT DODGE *   PTCLDY    72  59  64 E5        29.72F
MASON CITY     CLEAR     72  62  71 CALM      29.75S
FOREST CITY *  CLEAR     70  61  73 E3        29.74S
WEBSTER CITY * CLEAR     72  64  78 E6        29.70F
IOWA FALLS *     N/A     73  61  64 CALM      29.74S
$$

IAZ007>011-017>019-026>030-037>042-050>054-066-280200-
   NORTHEAST IOWA

CITY           SKY/WX    TMP DP  RH WIND       PRES   REMARKS
CEDAR RAPIDS   CLOUDY    77  67  71 VRB3      29.72R
CHARLES CITY * CLEAR     72  66  83 W6        29.75R
CLINTON *      PTCLDY    75  68  78 S8        29.76S
DECORAH *      CLEAR     70  70 100 CALM      29.73R
DUBUQUE        CLOUDY    73  66  78 S9        29.75R
MONTICELLO *   CLOUDY    75  66  73 CALM      29.74R
OELWEIN *      CLEAR     72  68  88 W5        29.74S
WATERLOO       CLEAR     72  63  73 NW7       29.72S
$$

IAZ064-065-067-068-078-280200-
   EAST CENTRAL IOWA

CITY           SKY/WX    TMP DP  RH WIND       PRES   REMARKS
DAVENPORT      CLEAR     75  67  76 S13       29.75S
IOWA CITY      MOCLDY    76  65  68 NW6       29.73R
MT. PLEASANT * MOCLDY    79  70  73 SE8       29.73R HX  81
MUSCATINE *    PTCLDY    77  66  69 SE8       29.73R
QUAD CITIES    CLEAR     77  67  71 S13       29.74S
$$

IAZ062-063-075>077-085>089-095>099-280200-
   SOUTHEAST IOWA

CITY           SKY/WX    TMP DP  RH WIND       PRES   REMARKS
BURLINGTON     PTCLDY    75  69  81 S8        29.74R
FAIRFIELD *      N/A    N/A N/A N/A MISG        N/A
FORT MADISON * CLOUDY    75  70  83 SE12      29.75R
KEOKUK *       CLOUDY    75  70  83 SE12      29.73R
OSKALOOSA *      N/A     75  63  64 NW9       29.72R
OTTUMWA        CLOUDY    73  65  75 NW9       29.70S
WASHINGTON *   CLEAR     77  77 100 SE13      29.73R
$$

ABBREVIATIONS USED IN REMARKS
   TC - TEMPERATURES IN CELSIUS
  WCI - WIND CHILL INDEX
   HX - HEAT INDEX
  VSB - VISIBILITY
$$





USA.gov is the U.S. government's official web portal to all federal, state and local government web resources and services.